SCP
-0 -0 -0 -0 -0 -0 -0 -0 -0 -0 -0 -0 -0 -0 -0 -0 -0 -0 -0 -0 -0 -0 -0 -0 -0 -0 -0 -0 -0 -0 -0 0 0 -0 0 0 0 0 0 0 0 0 -0
-0 -0 -0 -0 -0 -0 -0 -0 -0 -0 -0 -0 -0 -0 -0 -0 -0 -0 -0 -0 -0 -0 -0 -0 -0 -0 -0 -0 -0 -0 -0 0 0 -0 0 -0 0 -0 -0 -0 -0 -0 -0
-0 -0 -0 -0 -0 -0 -0 -0 -0 -0 -0 -0 -0 -0 -0 -0 -0 -0 -0 -0 -0 -0 -0 -0 -0 -0 -0 -0 -0 -0 -0 0 0 0 0 0 -0 -0 -0 -0 -0 -0 -0
-0 -0 -0 -0 -0 -0 -0 -0 -0 0 -0 -0 -0 -0 -0 -0 -0 -0 -0 0 -0 -0 -0 -0 -0 -0 -0 -0 -0 -0 0 0 0 0 0 0 -0 -0 -0 -0 -0 -0 0
-0 -0 -0 -0 -0 -0 -0 -0 -0 -0 -0 -0 -0 -0 -0 -0 -0 -0 -0 -0 0 -0 -0 -0 -0 -0 -0 -0 -0 -0 0 0 -0 -0 -0 0 -0 0 -0 -0 -0 0 0
-0 -0 -0 -0 -0 -0 -0 -0 -0 -0 -0 -0 -0 -0 -0 -0 -0 -0 -0 -0 0 0 -0 -0 -0 -0 -0 -0 -0 -0 -0 -0 -0 0 0 0 0 0 0 0 0 0 0
-0 -0 -0 -0 -0 -0 -0 -0 -0 0 -0 -0 -0 -0 -0 -0 -0 -0 -0 -0 0 0 -0 -0 0 0 0 0 -0 0 0 0 0 0 0 0 0 0 0 0 0 0 0
-0 -0 -0 -0 -0 -0 -0 -0 -0 0 0 0 0 -0 -0 0 0 0 0 0 -0 -0 0 0 0 0 0 0 0 0 0 0 0 0 0 0 0 0 0 0 0 0 0
0 -0 -0 -0 -0 -0 -0 -0 -0 -0 0 0 0 -0 -0 -0 0 -0 -0 -0 -0 -0 0 0 0 0 0 0 0 0 0 0 0 0 0 0 0 0 0 0 0 0 0
-0 -0 -0 -0 -0 -0 -0 -0 -0 -0 0 0 0 -0 -0 -0 -0 0 0 0 0 0 0 0 0 0 0 0 0 0 0 0 0 0 0 0 0 0 0 0 0 0 0
-0 -0 -0 -0 -0 -0 -0 -0 -0 -0 -0 -0 0 -0 -0 -0 -0 -0 0 0 0 0 0 0 0 0 0 0 0 0 0 0 0 0 0 0 0 0 0 0 0 0 0
-0 -0 -0 -0 -0 -0 -0 -0 -0 -0 -0 -0 -0 -0 0 0 0 0 0 0 0 0 0 0 0 0 0 0 0 0 0 0 0 0 0 0 0 0 0 0 0 0 0
-0 -0 -0 -0 -0 -0 -0 -0 -0 0 -0 -0 -0 -0 0 0 0 0 0 0 0 0 0 0 0 0 0 0 0 0 0 0 0 0 0 0 0 0 0 0 0 0 0
-0 -0 -0 -0 -0 -0 -0 -0 -0 -0 -0 0 0 -0 0 0 0 0 0 0 0 0 0 0 0 0 0 0 0 0 0 0 0 0 0 0 0 0 0 0 0 0 0
-0 -0 -0 -0 -0 0 -0 -0 -0 -0 -0 -0 0 0 0 0 0 0 0 0 0 0 0 0 0 0 0 0 0 0 0 0 0 0 0 0 0 0 0 0 0 0 0
0 -0 -0 -0 -0 -0 -0 -0 0 0 0 0 0 0 0 0 0 0 0 0 0 0 0 0 0 0 0 0 0 0 0 0 0 0 0 0 0 0 0 0 0 0 0
0 0 0 0 -0 -0 -0 0 0 0 0 0 0 0 0 0 0 0 0 0 0 0 0 0 0 0 0 0 0 0 0 0 0 0 0 0 0 0 0 0 0 0 0
0 0 0 0 0 0 0 0 0 0 0 0 0 0 0 0 0 0 0 0 0 0 0 0 0 0 0 0 0 0 0 0 0 0 0 0 0 0 0 0 0 0 0
0 0 0 0 0 0 0 0 0 0 0 0 0 0 0 0 0 0 0 0 0 0 0 0 0 0 0 0 0 0 0 0 0 0 0 0 0 0 0 0 0 0 0
0 0 0 0 0 0 0 0 0 0 0 0 0 0 0 0 0 0 0 0 0 0 0 0 0 0 0 0 0 0 0 0 0 0 0 0 0 0 0 0 0 0 0
0 0 0 0 0 0 0 0 0 0 0 0 0 0 0 0 0 0 0 0 0 0 0 0 0 0 0 0 0 0 0 0 0 0 0 0 0 0 0 0 0 0 0
0 0 0 0 0 0 0 0 0 0 0 0 0 0 0 0 0 0 0 0 0 0 0 0 0 0 0 0 0 0 0 0 0 0 0 0 0 0 0 0 0 0 0
0 0 0 0 0 0 0 0 0 0 0 0 0 0 0 0 0 0 0 0 0 0 0 0 0 0 0 0 0 0 0 0 0 0 0 0 0 0 0 0 0 0 0
0 0 0 0 0 0 0 0 0 0 0 0 0 0 0 0 0 0 0 0 0 0 0 0 0 0 0 0 0 0 0 0 0 0 0 0 0 0 0 0 0 0 0
0 0 0 0 0 0 0 0 0 0 0 0 0 0 0 0 0 0 0 0 0 0 0 0 0 0 0 0 0 0 0 0 0 0 0 0 0 0 0 0 0 0 0
0 0 0 0 0 0 0 0 0 0 0 0 0 0 0 0 0 0 0 0 0 0 0 0 0 0 0 0 0 0 0 0 0 0 0 0 0 0 0 0 0 0 0
Wind_Speed_500mb
32 31 29 22 19 16 14 13 14 16 20 21 21 20 17 13 12 23 25 21 27 23 20 23 22 25 27 25 26 27 27 30 36 36 32 32 32 35 32 30 31 23 23
35 33 30 20 18 14 12 10 10 13 16 18 17 18 18 15 11 14 13 17 26 25 24 27 23 28 28 28 29 28 30 41 43 39 38 30 30 36 33 32 30 30 29
35 33 30 24 15 11 13 9 11 10 12 15 15 17 17 16 19 13 15 18 24 24 24 25 22 24 27 29 31 32 34 34 32 32 37 22 25 28 23 25 24 22 23
34 32 30 25 15 15 11 10 11 14 16 13 10 13 18 16 18 18 20 19 20 20 21 22 22 23 24 26 28 30 31 33 33 35 22 23 20 18 13 15 14 10 9
35 32 30 24 18 11 8 8 9 11 18 12 8 14 17 16 16 15 17 18 17 18 18 18 20 21 21 22 24 25 25 26 26 24 21 21 16 18 13 14 14 14 11
34 29 26 22 18 13 8 7 6 9 14 17 16 7 13 14 15 16 16 15 15 17 15 15 17 18 19 18 19 20 21 20 22 19 18 20 16 13 9 13 13 13 14
32 28 25 23 19 14 9 7 5 6 9 22 20 13 10 10 14 16 17 16 14 12 11 10 13 15 16 14 13 14 13 15 17 16 16 17 12 10 10 10 13 14 17
29 26 25 24 19 15 11 9 8 6 9 11 14 17 13 11 10 15 18 16 14 13 12 9 9 10 11 11 10 8 8 10 12 11 11 11 9 8 10 8 9 12 13
27 26 26 24 22 18 14 12 9 9 12 13 11 20 16 12 11 13 17 17 15 14 13 11 9 7 7 6 5 3 4 5 5 5 6 5 4 6 6 4 5 8 10
27 27 27 27 24 21 18 15 13 13 12 16 14 15 21 19 9 9 15 16 17 16 15 14 13 12 11 9 6 4 1 2 3 5 3 3 2 3 3 3 5 6 4
31 31 30 29 27 24 22 19 17 18 16 17 20 20 17 18 16 11 10 15 17 18 17 18 17 16 13 12 11 10 9 8 8 9 9 9 7 6 5 5 5 6 5
32 32 32 32 28 26 25 24 22 22 23 22 21 21 23 24 22 19 18 17 18 20 21 22 22 21 18 18 17 16 16 15 14 15 15 14 13 12 11 10 8 9 8
25 30 31 32 31 30 28 26 27 27 26 26 27 25 24 27 30 26 24 21 22 21 23 25 25 24 24 23 23 23 23 22 21 22 22 21 20 18 17 15 14 12 13
23 24 27 31 34 35 33 33 32 32 29 30 29 29 30 28 29 31 30 28 26 27 26 27 28 28 28 28 28 28 29 29 29 29 29 27 28 25 23 21 21 18 18
27 26 28 28 32 34 38 38 40 37 35 32 33 33 32 33 32 30 33 33 31 30 29 28 29 30 31 32 33 33 33 33 34 35 34 33 34 32 29 28 27 26 24
28 30 32 33 33 34 39 42 41 42 40 38 37 35 34 34 35 34 32 35 35 34 33 33 33 34 36 37 37 38 37 38 39 41 41 39 37 37 36 34 32 32 32
35 34 37 38 37 41 41 44 46 46 44 44 42 40 39 36 35 36 36 35 35 35 35 38 38 39 40 40 40 41 42 43 46 47 47 47 45 43 42 40 38 37 37
37 37 41 43 44 44 46 48 48 51 50 50 47 45 43 41 39 38 39 39 37 41 41 42 43 45 45 44 44 44 47 48 49 51 52 51 52 50 48 47 46 44 43
31 35 32 33 38 42 48 52 53 55 54 56 56 51 46 46 45 45 44 42 39 43 46 46 47 48 48 47 49 50 54 56 55 56 57 56 56 56 55 53 51 51 50
49 47 49 45 41 41 43 48 55 57 58 60 63 60 51 49 49 49 51 51 46 46 49 49 48 49 50 49 50 55 58 58 63 63 61 59 60 59 59 60 59 59 57
60 57 59 60 54 48 47 47 49 57 60 62 61 62 58 56 55 54 54 55 54 53 52 51 50 52 53 52 50 55 57 57 57 56 55 57 59 60 63 63 63 64 62
56 60 58 55 55 54 52 52 54 53 56 59 62 59 57 57 56 57 57 57 58 57 55 56 57 55 56 52 50 33 33 34 50 31 29 32 34 37 43 51 57 58 56
51 51 54 53 50 52 55 57 58 58 56 55 58 56 54 52 51 54 59 60 62 62 60 59 59 59 57 50 56 37 22 21 38 47 39 40 50 55 52 44 44 52 52
47 46 44 46 50 56 61 64 63 60 56 47 49 52 48 44 40 40 41 47 52 58 61 60 61 62 59 58 55 63 61 54 33 38 35 38 54 63 65 55 53 55 59
37 41 46 51 53 55 59 60 59 56 50 41 39 46 43 38 32 33 35 36 38 40 45 48 52 57 57 61 60 61 65 60 60 58 58 55 45 44 61 66 64 67 67
27 31 35 39 42 44 46 44 45 42 38 34 32 33 34 34 32 32 35 35 34 34 39 41 43 47 52 54 56 56 62 63 61 61 66 75 79 66 55 61 70 71 70
Wind_Direction_500mb
164 164 161 161 158 156 151 141 136 146 154 157 159 162 162 152 131 113 144 145 133 130 119 104 93 94 93 91 88 83 82 99 103 91 85 82 84 74 71 76 69 64 65
165 163 161 163 158 155 157 150 142 147 161 169 174 179 181 185 180 145 138 134 128 114 114 106 96 94 90 89 92 86 82 100 95 88 79 63 82 74 78 79 81 78 75
167 165 162 164 162 164 157 151 153 151 149 157 158 157 169 171 181 169 146 142 131 124 110 100 92 95 89 88 89 86 84 94 91 81 72 67 84 80 83 78 74 73 73
170 168 166 167 163 149 147 152 161 149 152 149 155 145 143 145 137 152 151 140 134 126 114 109 102 95 95 93 91 88 85 83 82 82 73 72 71 82 69 53 46 38 36
170 170 171 171 165 152 149 158 162 173 171 147 152 144 140 147 131 138 141 143 143 134 120 114 101 95 98 98 93 91 87 84 81 74 74 83 75 75 50 41 44 51 42
171 174 177 174 176 177 171 169 166 173 162 158 171 202 165 151 146 139 144 148 152 148 143 129 110 99 99 99 96 90 83 80 77 76 80 81 76 100 55 31 38 33 30
176 180 181 185 193 192 189 178 197 181 173 173 194 178 186 159 154 153 158 164 164 162 162 144 124 114 104 100 102 91 80 74 77 77 77 71 65 78 86 36 14 20 21
186 187 190 191 203 214 213 208 205 207 199 209 185 194 215 186 185 173 172 181 185 187 192 166 152 134 120 113 105 95 76 65 65 70 73 74 81 64 75 76 7 15 17
196 198 196 201 208 221 229 228 224 225 214 217 208 184 211 223 188 199 191 191 199 205 203 197 193 180 157 150 140 110 79 58 55 43 60 59 64 64 52 48 14 12 11
199 207 206 207 215 225 233 236 233 229 229 235 240 206 209 233 221 193 208 211 214 215 217 217 218 216 214 210 214 230 254 330 350 328 340 295 333 11 9 2 348 359 3
205 208 213 216 219 227 234 239 235 235 244 244 236 245 224 231 243 232 226 229 231 228 225 227 233 239 243 249 255 260 269 280 284 284 280 278 280 288 296 303 308 314 317
218 218 219 221 225 230 236 239 242 240 239 246 250 249 241 241 240 239 238 238 244 244 235 233 237 245 252 257 266 269 272 272 277 278 278 277 273 271 273 279 286 289 287
238 233 232 229 229 234 241 243 243 244 243 243 246 252 251 248 246 244 244 241 243 245 246 243 245 248 251 256 263 269 273 277 278 281 278 274 270 269 267 268 271 271 274
249 253 249 241 237 237 243 248 251 248 247 247 248 248 250 253 248 244 245 248 246 245 245 245 245 247 251 255 259 264 269 273 276 279 278 274 272 269 267 266 266 263 263
254 258 258 252 252 248 247 250 251 252 253 252 250 250 250 251 252 250 245 245 249 252 252 255 255 255 256 258 259 261 264 269 272 275 276 273 271 269 266 264 264 264 260
265 262 262 260 255 255 256 255 255 255 257 254 253 255 255 254 253 253 254 249 248 250 252 255 259 261 262 263 263 265 265 265 267 269 271 270 266 267 265 264 262 264 265
268 264 261 262 258 256 259 260 259 258 256 256 254 254 255 255 256 255 254 254 252 252 256 258 261 263 267 268 268 269 269 268 267 268 269 269 267 263 264 264 262 262 265
256 266 272 259 254 255 257 259 261 262 260 259 257 253 254 255 256 257 258 258 256 256 260 263 264 267 270 272 274 274 274 271 271 270 269 269 269 268 265 263 264 262 262
268 258 265 261 255 256 257 257 258 258 259 260 260 257 253 255 253 255 258 259 257 258 260 262 265 268 272 277 281 280 279 278 276 274 272 271 271 270 268 266 263 263 261
270 259 258 262 260 259 258 255 253 253 253 255 258 257 254 253 254 255 258 260 259 259 259 261 264 269 273 275 279 282 284 284 285 282 280 277 274 271 268 265 264 261 262
265 259 251 254 258 255 253 258 259 257 253 252 255 261 260 257 257 257 259 262 263 261 265 267 267 267 269 275 276 282 287 287 286 288 284 276 273 271 267 263 262 264 264
261 253 252 252 250 249 252 262 264 263 260 256 254 257 260 260 261 261 261 263 266 268 267 267 268 267 270 267 270 275 292 289 292 287 287 283 283 279 275 267 262 263 265
258 254 255 256 255 255 258 261 259 255 259 258 253 252 253 255 259 263 262 264 266 268 267 268 269 269 268 271 271 253 272 268 290 289 281 275 276 275 270 271 268 270 267
257 261 259 259 258 257 255 253 253 256 255 258 256 255 257 257 256 262 266 263 263 266 268 267 268 270 268 267 267 273 263 261 276 289 281 278 275 277 278 274 269 268 270
257 258 255 254 251 256 254 246 245 245 247 249 253 255 258 260 260 258 262 265 267 269 270 268 269 271 271 271 271 271 278 276 270 264 281 287 287 278 284 282 278 277 275
250 251 252 248 248 251 246 241 236 240 244 249 255 260 261 256 253 251 252 255 257 265 272 273 271 271 273 274 274 274 268 272 280 278 273 287 291 290 285 285 288 286 282
Wind_Speed_850mb
32 31 29 22 19 16 14 13 14 16 20 21 21 20 17 13 12 23 25 21 27 23 20 23 22 25 27 25 26 27 27 30 36 36 32 32 32 35 32 30 31 23 23
35 33 30 20 18 14 12 10 10 13 16 18 17 18 18 15 11 14 13 17 26 25 24 27 23 28 28 28 29 28 30 41 43 39 38 30 30 36 33 32 30 30 29
35 33 30 24 15 11 13 9 11 10 12 15 15 17 17 16 19 13 15 18 24 24 24 25 22 24 27 29 31 32 34 34 32 32 37 22 25 28 23 25 24 22 23
34 32 30 25 15 15 11 10 11 14 16 13 10 13 18 16 18 18 20 19 20 20 21 22 22 23 24 26 28 30 31 33 33 35 22 23 20 18 13 15 14 10 9
35 32 30 24 18 11 8 8 9 11 18 12 8 14 17 16 16 15 17 18 17 18 18 18 20 21 21 22 24 25 25 26 26 24 21 21 16 18 13 14 14 14 11
34 29 26 22 18 13 8 7 6 9 14 17 16 7 13 14 15 16 16 15 15 17 15 15 17 18 19 18 19 20 21 20 22 19 18 20 16 13 9 13 13 13 14
32 28 25 23 19 14 9 7 5 6 9 22 20 13 10 10 14 16 17 16 14 12 11 10 13 15 16 14 13 14 13 15 17 16 16 17 12 10 10 10 13 14 17
29 26 25 24 19 15 11 9 8 6 9 11 14 17 13 11 10 15 18 16 14 13 12 9 9 10 11 11 10 8 8 10 12 11 11 11 9 8 10 8 9 12 13
27 26 26 24 22 18 14 12 9 9 12 13 11 20 16 12 11 13 17 17 15 14 13 11 9 7 7 6 5 3 4 5 5 5 6 5 4 6 6 4 5 8 10
27 27 27 27 24 21 18 15 13 13 12 16 14 15 21 19 9 9 15 16 17 16 15 14 13 12 11 9 6 4 1 2 3 5 3 3 2 3 3 3 5 6 4
31 31 30 29 27 24 22 19 17 18 16 17 20 20 17 18 16 11 10 15 17 18 17 18 17 16 13 12 11 10 9 8 8 9 9 9 7 6 5 5 5 6 5
32 32 32 32 28 26 25 24 22 22 23 22 21 21 23 24 22 19 18 17 18 20 21 22 22 21 18 18 17 16 16 15 14 15 15 14 13 12 11 10 8 9 8
25 30 31 32 31 30 28 26 27 27 26 26 27 25 24 27 30 26 24 21 22 21 23 25 25 24 24 23 23 23 23 22 21 22 22 21 20 18 17 15 14 12 13
23 24 27 31 34 35 33 33 32 32 29 30 29 29 30 28 29 31 30 28 26 27 26 27 28 28 28 28 28 28 29 29 29 29 29 27 28 25 23 21 21 18 18
27 26 28 28 32 34 38 38 40 37 35 32 33 33 32 33 32 30 33 33 31 30 29 28 29 30 31 32 33 33 33 33 34 35 34 33 34 32 29 28 27 26 24
28 30 32 33 33 34 39 42 41 42 40 38 37 35 34 34 35 34 32 35 35 34 33 33 33 34 36 37 37 38 37 38 39 41 41 39 37 37 36 34 32 32 32
35 34 37 38 37 41 41 44 46 46 44 44 42 40 39 36 35 36 36 35 35 35 35 38 38 39 40 40 40 41 42 43 46 47 47 47 45 43 42 40 38 37 37
37 37 41 43 44 44 46 48 48 51 50 50 47 45 43 41 39 38 39 39 37 41 41 42 43 45 45 44 44 44 47 48 49 51 52 51 52 50 48 47 46 44 43
31 35 32 33 38 42 48 52 53 55 54 56 56 51 46 46 45 45 44 42 39 43 46 46 47 48 48 47 49 50 54 56 55 56 57 56 56 56 55 53 51 51 50
49 47 49 45 41 41 43 48 55 57 58 60 63 60 51 49 49 49 51 51 46 46 49 49 48 49 50 49 50 55 58 58 63 63 61 59 60 59 59 60 59 59 57
60 57 59 60 54 48 47 47 49 57 60 62 61 62 58 56 55 54 54 55 54 53 52 51 50 52 53 52 50 55 57 57 57 56 55 57 59 60 63 63 63 64 62
56 60 58 55 55 54 52 52 54 53 56 59 62 59 57 57 56 57 57 57 58 57 55 56 57 55 56 52 50 33 33 34 50 31 29 32 34 37 43 51 57 58 56
51 51 54 53 50 52 55 57 58 58 56 55 58 56 54 52 51 54 59 60 62 62 60 59 59 59 57 50 56 37 22 21 38 47 39 40 50 55 52 44 44 52 52
47 46 44 46 50 56 61 64 63 60 56 47 49 52 48 44 40 40 41 47 52 58 61 60 61 62 59 58 55 63 61 54 33 38 35 38 54 63 65 55 53 55 59
37 41 46 51 53 55 59 60 59 56 50 41 39 46 43 38 32 33 35 36 38 40 45 48 52 57 57 61 60 61 65 60 60 58 58 55 45 44 61 66 64 67 67
27 31 35 39 42 44 46 44 45 42 38 34 32 33 34 34 32 32 35 35 34 34 39 41 43 47 52 54 56 56 62 63 61 61 66 75 79 66 55 61 70 71 70
Wind_Direction_850mb
164 164 161 161 158 156 151 141 136 146 154 157 159 162 162 152 131 113 144 145 133 130 119 104 93 94 93 91 88 83 82 99 103 91 85 82 84 74 71 76 69 64 65
165 163 161 163 158 155 157 150 142 147 161 169 174 179 181 185 180 145 138 134 128 114 114 106 96 94 90 89 92 86 82 100 95 88 79 63 82 74 78 79 81 78 75
167 165 162 164 162 164 157 151 153 151 149 157 158 157 169 171 181 169 146 142 131 124 110 100 92 95 89 88 89 86 84 94 91 81 72 67 84 80 83 78 74 73 73
170 168 166 167 163 149 147 152 161 149 152 149 155 145 143 145 137 152 151 140 134 126 114 109 102 95 95 93 91 88 85 83 82 82 73 72 71 82 69 53 46 38 36
170 170 171 171 165 152 149 158 162 173 171 147 152 144 140 147 131 138 141 143 143 134 120 114 101 95 98 98 93 91 87 84 81 74 74 83 75 75 50 41 44 51 42
171 174 177 174 176 177 171 169 166 173 162 158 171 202 165 151 146 139 144 148 152 148 143 129 110 99 99 99 96 90 83 80 77 76 80 81 76 100 55 31 38 33 30
176 180 181 185 193 192 189 178 197 181 173 173 194 178 186 159 154 153 158 164 164 162 162 144 124 114 104 100 102 91 80 74 77 77 77 71 65 78 86 36 14 20 21
186 187 190 191 203 214 213 208 205 207 199 209 185 194 215 186 185 173 172 181 185 187 192 166 152 134 120 113 105 95 76 65 65 70 73 74 81 64 75 76 7 15 17
196 198 196 201 208 221 229 228 224 225 214 217 208 184 211 223 188 199 191 191 199 205 203 197 193 180 157 150 140 110 79 58 55 43 60 59 64 64 52 48 14 12 11
199 207 206 207 215 225 233 236 233 229 229 235 240 206 209 233 221 193 208 211 214 215 217 217 218 216 214 210 214 230 254 330 350 328 340 295 333 11 9 2 348 359 3
205 208 213 216 219 227 234 239 235 235 244 244 236 245 224 231 243 232 226 229 231 228 225 227 233 239 243 249 255 260 269 280 284 284 280 278 280 288 296 303 308 314 317
218 218 219 221 225 230 236 239 242 240 239 246 250 249 241 241 240 239 238 238 244 244 235 233 237 245 252 257 266 269 272 272 277 278 278 277 273 271 273 279 286 289 287
238 233 232 229 229 234 241 243 243 244 243 243 246 252 251 248 246 244 244 241 243 245 246 243 245 248 251 256 263 269 273 277 278 281 278 274 270 269 267 268 271 271 274
249 253 249 241 237 237 243 248 251 248 247 247 248 248 250 253 248 244 245 248 246 245 245 245 245 247 251 255 259 264 269 273 276 279 278 274 272 269 267 266 266 263 263
254 258 258 252 252 248 247 250 251 252 253 252 250 250 250 251 252 250 245 245 249 252 252 255 255 255 256 258 259 261 264 269 272 275 276 273 271 269 266 264 264 264 260
265 262 262 260 255 255 256 255 255 255 257 254 253 255 255 254 253 253 254 249 248 250 252 255 259 261 262 263 263 265 265 265 267 269 271 270 266 267 265 264 262 264 265
268 264 261 262 258 256 259 260 259 258 256 256 254 254 255 255 256 255 254 254 252 252 256 258 261 263 267 268 268 269 269 268 267 268 269 269 267 263 264 264 262 262 265
256 266 272 259 254 255 257 259 261 262 260 259 257 253 254 255 256 257 258 258 256 256 260 263 264 267 270 272 274 274 274 271 271 270 269 269 269 268 265 263 264 262 262
268 258 265 261 255 256 257 257 258 258 259 260 260 257 253 255 253 255 258 259 257 258 260 262 265 268 272 277 281 280 279 278 276 274 272 271 271 270 268 266 263 263 261
270 259 258 262 260 259 258 255 253 253 253 255 258 257 254 253 254 255 258 260 259 259 259 261 264 269 273 275 279 282 284 284 285 282 280 277 274 271 268 265 264 261 262
265 259 251 254 258 255 253 258 259 257 253 252 255 261 260 257 257 257 259 262 263 261 265 267 267 267 269 275 276 282 287 287 286 288 284 276 273 271 267 263 262 264 264
261 253 252 252 250 249 252 262 264 263 260 256 254 257 260 260 261 261 261 263 266 268 267 267 268 267 270 267 270 275 292 289 292 287 287 283 283 279 275 267 262 263 265
258 254 255 256 255 255 258 261 259 255 259 258 253 252 253 255 259 263 262 264 266 268 267 268 269 269 268 271 271 253 272 268 290 289 281 275 276 275 270 271 268 270 267
257 261 259 259 258 257 255 253 253 256 255 258 256 255 257 257 256 262 266 263 263 266 268 267 268 270 268 267 267 273 263 261 276 289 281 278 275 277 278 274 269 268 270
257 258 255 254 251 256 254 246 245 245 247 249 253 255 258 260 260 258 262 265 267 269 270 268 269 271 271 271 271 271 278 276 270 264 281 287 287 278 284 282 278 277 275
250 251 252 248 248 251 246 241 236 240 244 249 255 260 261 256 253 251 252 255 257 265 272 273 271 271 273 274 274 274 268 272 280 278 273 287 291 290 285 285 288 286 282